Location: Krasnoyarskiy Pitomnik
(51.1333°N, 71.6167°E)
Time: 21:04:46
(UTC+00:00)

A-11 Canister half - Pass Details

Date: 21 April 2024
Orbit: 1525 x 1683 km, 47.3° (Epoch: 19 May)

Event Time Altitude Azimuth Distance (km) Brightness Sun altitude
Rises 06:27:54 0° 285° (WNW) 4,939 11.4 49.9°
Reaches altitude 10° 06:31:14 10° 280° (W) 3,951 11.1 50.0°
Maximum altitude 06:40:41 46° 212° (SSW) 2,136 11.1 50.4°
Drops below altitude 10° 06:49:59 10° 143° (SE) 3,887 11.9 50.7°
Sets 06:53:15 0° 138° (SE) 4,853 12.1 50.7°
